User: anonymous   Login
Location: Notre Dame Regional High School Observatory
(37.3056°N, 89.6097°W)
Time: 09:25:10
(UTC-06:00)
Language:

ATLAS 3B R/B - Orbit

View from above orbital plane
View from above orbital plane
View from above satellite
View from above satellite

Ground track
Ground track

The orbit data is extracted from the following two-line orbital elements,

1 28538U 05004B   16341.24047211 0.00000000  00000-0  00000-0 0    04
2 28538  63.8218  62.9935 0156000 190.8092 169.1908 13.43091968    09
Epoch (UTC): 06 December 2016 05:46:16
Eccentricity: 0.0156000
inclination: 63.8218°
perigee height: 981 km
apogee height: 1214 km
right ascension of ascending node: 62.9935°
argument of perigee: 190.8092°
revolutions per day: 13.43091968
mean anomaly at epoch: 169.1908°
orbit number at epoch: 0

The dashed part of the orbit path shows where the satellite is in the earth's shadow,  

DLR